Home > Weather > Amersfoort > Past weeks

Flag for Netherlands Past Weather in Amersfoort, Netherlands — Yesterday and Last 2 Weeks

Now
81 °F

Passing clouds.


Feels Like: 82 °F
Forecast: 65 / 78 °F
Wind: 13 mph from Northeast

Location: Deelen

Current Time: Aug 27, 2016 at 3:42:30 PM

Latest Report: Aug 27, 2016 at 2:55 PM


Visibility: N/A

Pressure: 30.04 "Hg

Humidity: 54%

Dew Point: 63 °F

Location of AmersfoortLocation

Past Weather in Amersfoort — Graph

°F

Amersfoort Temperature Yesterday

Maximum temperature yesterday: 82 °F (at 12:55 PM)
Minimum temperature yesterday: 66 °F (at 12:25 AM)
Average temperature yesterday: 73 °F

High & Low Weather Summary for the Past Weeks

 TemperatureHumidityPressure
High90 °F (Aug 25, 4:25 PM)100% (Aug 13, 6:55 AM)30.30 "Hg (Aug 13, 6:55 AM)
Low46 °F (Aug 15, 6:55 AM)33% (Aug 24, 4:25 PM)29.77 "Hg (Aug 19, 2:55 PM)
Average66 °F73%30.06 "Hg
* Reported Aug 12 2:25 PM — Aug 27 2:25 PM, Amersfoort, Weather by CustomWeather, © 2016

Note: Actual official high and low records may vary slightly from our data, if they occured in-between our weather recording intervals... More about our weather records

Advertising

Amersfoort Weather History for the Previous 24 Hours

Scroll right to see more
 ConditionsComfort  
Time TempWeatherWind HumidityBarometerVisibility
2:25 PM
Sat, Aug 27
81 °FPassing clouds.12 mph51%30.07 "HgN/A
1:55 PM79 °FWarm.12 mph54%30.07 "HgN/A
1:25 PM79 °FWarm.13 mph54%30.07 "HgN/A
12:55 PM77 °FScattered clouds.12 mph57%30.09 "HgN/A
12:25 PM77 °FWarm.12 mph54%30.09 "HgN/A
11:55 AM75 °FPassing clouds.13 mph57%30.09 "HgN/A
11:25 AM73 °FMild.15 mph61%30.09 "HgN/A
10:55 AM72 °FMild.14 mph65%30.12 "HgN/A
10:25 AM70 °FScattered clouds.13 mph69%30.12 "HgN/A
9:55 AM70 °FMild.9 mph69%30.12 "HgN/A
9:25 AM68 °FPartly sunny.8 mph73%30.12 "HgN/A
8:55 AM66 °FMild.8 mph78%30.12 "HgN/A
8:25 AM64 °FPassing clouds.8 mph88%30.12 "HgN/A
7:55 AM63 °FMild.8 mph94%30.12 "HgN/A
7:25 AM63 °FPassing clouds.8 mph88%30.12 "HgN/A
6:55 AM61 °FPassing clouds.8 mph94%30.12 "HgN/A
6:25 AM61 °FPassing clouds.6 mph94%30.12 "HgN/A
5:55 AM61 °FPassing clouds.7 mph94%30.12 "HgN/A
5:25 AM63 °FPassing clouds.6 mph94%30.12 "HgN/A
4:55 AM63 °FMild.6 mph94%30.12 "HgN/A
4:25 AM63 °FPassing clouds.7 mph94%30.12 "HgN/A
3:55 AM63 °FOvercast.7 mph94%30.12 "HgN/A
3:25 AM63 °FOvercast.6 mph94%30.12 "HgN/A
2:55 AM63 °FPassing clouds.6 mph94%30.12 "HgN/A
2:25 AM64 °FOvercast.6 mph88%30.12 "HgN/A
1:55 AM64 °FMild.6 mph88%30.12 "HgN/A
1:25 AM64 °FMild.6 mph88%30.12 "HgN/A
12:55 AM64 °FPassing clouds.6 mph88%30.12 "HgN/A
12:25 AM64 °FPassing clouds.6 mph83%30.12 "HgN/A
11:55 PM
Fri, Aug 26
66 °FPassing clouds.7 mph78%30.09 "HgN/A
11:25 PM66 °FPassing clouds.7 mph78%30.09 "HgN/A
10:55 PM66 °FMild.6 mph78%30.09 "HgN/A
10:25 PM68 °FMild.8 mph73%30.09 "HgN/A
9:55 PM68 °FMild.3 mph73%30.09 "HgN/A
9:25 PM70 °FOvercast.6 mph69%30.09 "HgN/A
8:55 PM72 °FPartly sunny.7 mph65%30.09 "HgN/A
8:25 PM73 °FOvercast.10 mph65%30.07 "HgN/A
7:55 PM73 °FOvercast.9 mph65%30.07 "HgN/A
7:25 PM75 °FPartly sunny.10 mph65%30.07 "HgN/A
6:55 PM77 °FWarm.12 mph61%30.07 "HgN/A
6:25 PM79 °FWarm.12 mph61%30.07 "HgN/A
5:55 PM81 °FPassing clouds.8 mph62%30.04 "HgN/A
5:25 PM81 °FWarm.9 mph58%30.04 "HgN/A
4:55 PM81 °FWarm.8 mph58%30.04 "HgN/A
4:25 PM81 °FWarm.8 mph58%30.04 "HgN/A
3:55 PM81 °FPassing clouds.10 mph58%30.04 "HgN/A
3:25 PM82 °FWarm.8 mph55%30.04 "HgN/A
Weather by CustomWeather, © 2016

See weather overviewHow to use our weather pages